Location: Cercedilla
(40.7379°N, 4.0638°W)
Time: 18:56:02
(UTC+00:00)

Cosmos 1538 Rocket - Pass Details

Date: 07 June 2020
Orbit: 752 x 792 km, 74.0° (Epoch: 10 July)

Event Time Altitude Azimuth Distance (km) Brightness Sun altitude
Exits shadow 03:39:42 13° 210° (SSW) 2,153 5.7 -10.7°
Maximum altitude 03:44:29 64° 291° (WNW) 873 4.2 -10.0°
Drops below altitude 10° 03:49:51 10° 13° (NNE) 2,365 7.4 -9.3°
Sets 03:52:17 0° 17° (NNE) 3,298 8.4 -8.9°
